sat.trackr.live / text

‹ back to catalog

HULIANWANG DIGUI-124

NORAD 67064 · 2025-295F

PAYLOAD ACTIVE UNKNOWN

§ Identity

Operator
Country
PRC
Launch date
2025-12-11
Launch site
WSC
Launch vehicle
Mass (kg)
RCS (m²)

External: N2YO · Heavens-Above · Gunter

§ Orbital elements

Epoch: 2026-09-20T14:13:19.581600Z

Period
108.33 min
Inclination
50.0006°
Eccentricity
0.0000759
Mean motion
13.29326384 rev/d
Perigee alt
1,148.7 km
Apogee alt
1,149.9 km
Semi-major
7,527.4 km
B*
4.1620e-5
RAAN
43.1404°
Arg perigee
82.9817°
Mean anomaly
277.1141°
Rev number
3,819

§ Raw data

HULIANWANG DIGUI-1241 67064U 25295F   26263.59258775 -.00000105  00000+0  41620-4 0  99962 67064  50.0006  43.1404 0000759  82.9817 277.1141 13.29326384 38193

JSON: /api/v1/satellites/67064 · /tle

For live sub-satellite position, see the globe view (requires WebGL).

§ Visibility from observer

Set your observer location to see the next 7 days of passes ≥ 10°. The values pass through the URL so the page stays shareable.

No JS? Fill the form by hand. The geolocation button needs JavaScript.